[Date Prev][Date Next][Thread Prev][Thread Next] - [Date Index][Thread Index][Author Index]

2 Line ISS Keps 1-11



ISS
1 25544U 98067A   02011.26414758  .00062419  00000-0  85788-3 0  9464
2 25544  51.6411 121.5599 0007128 290.7987 108.0344 15.56670380179550


----
Via the sarex mailing list at AMSAT.ORG courtesy of AMSAT-NA.
To unsubscribe, send "unsubscribe sarex" to Majordomo@amsat.org



AMSAT Top AMSAT Home